Tracking 34784 objects as of 21-Jul-2026
HD Live streaming from Space Station
objects crossing your sky now

METEOR 2-8 DEB

Track METEOR 2-8 DEB now!
10-day predictions


NORAD ID: 36349
Int'l Code: 1982-025AK
Perigee: 745.2 km
Apogee: 770.3 km
Inclination: 82.5 °
Period: 99.8 minutes
Semi major axis: 7128 km
RCS: 0.0012 m2 (small)
Launch date: March 25, 1982
Source: Commonwealth of Independent States (former USSR) (CIS)
Launch site: PLESETSK MISSILE AND SPACE COMPLEX (PKMTR)

Note: This is SATELLITE DEBRIS
Your satellite tracking list
Your tracking list is empty




NASA's NSSDC Master Catalog

Two Line Element Set (TLE):
1 36349U 82025AK  26201.02711454  .00003733  00000-0  11225-2 0  9996
2 36349  82.5009 105.4291 0017574  61.3259 298.9698 14.42386271211613
Source of the keplerian elements: AFSPC